GW7187 Weather Reports


time (UTC)temp
F
wind
direction
speed
knots
gust
knots
rain 1hr
in
rain 24hr
in
rain mn
in
humidity
%
barometer
mb
20260507101247 73 134 0.0 0.0 0.00 0.00 0.00 44 1019.3
20260507100747 72 127 3.5 3.5 0.00 0.00 0.00 44 1019.0
20260507100247 72 151 2.6 2.6 0.00 0.00 0.00 44 1019.0
20260507095747 71 186 2.6 2.6 0.00 0.00 0.00 45 1019.3
20260507095247 69 168 1.7 1.7 0.00 0.00 0.00 47 1019.3
20260507094747 70 205 7.0 7.0 0.00 0.00 0.00 46 1019.3
20260507094248 70 222 7.0 7.8 0.00 0.00 0.00 46 1019.3
20260507093748 71 198 3.5 3.5 0.00 0.00 0.00 44 1019.3
20260507093248 70 204 4.3 4.3 0.00 0.00 0.00 45 1019.6
20260507092747 69 151 4.3 4.3 0.00 0.00 0.00 44 1019.6
20260507092249 69 234 2.6 2.6 0.00 0.00 0.00 47 1020.0
20260507091747 70 156 3.5 3.5 0.00 0.00 0.00 47 1019.6
20260507091247 69 112 1.7 1.7 0.00 0.00 0.00 47 1019.6
20260507090748 68 223 1.7 1.7 0.00 0.00 0.00 47 1019.6
20260507090247 69 288 1.7 1.7 0.00 0.00 0.00 46 1020.0
20260507085747 70 138 2.6 2.6 0.00 0.00 0.00 47 1020.0
20260507085247 69 211 3.5 4.3 0.00 0.00 0.00 48 1020.0
20260507084748 69 180 4.3 4.3 0.00 0.00 0.00 47 1020.0
20260507084247 70 119 2.6 2.6 0.00 0.00 0.00 49 1020.0
20260507083747 69 161 3.5 3.5 0.00 0.00 0.00 47 1020.0
20260507083248 69 205 4.3 4.3 0.00 0.00 0.00 52 1020.0
20260507082747 68 143 0.9 0.9 0.00 0.00 0.00 49 1020.0
20260507082247 67 199 3.5 3.5 0.00 0.00 0.00 53 1020.3
20260507081747 67 186 3.5 4.3 0.00 0.00 0.00 51 1020.3
20260507081247 67 41 0.0 0.0 0.00 0.00 0.00 54 1020.0
20260507080747 66 211 4.3 5.2 0.00 0.00 0.00 54 1020.0
20260507080247 67 132 0.9 0.9 0.00 0.00 0.00 54 1020.3
20260507075747 66 0 3.5 3.5 0.00 0.00 0.00 57 1020.3
20260507075248 65 156 2.6 2.6 0.00 0.00 0.00 59 1020.3
20260507074748 65 199 3.5 3.5 0.00 0.00 0.00 60 1020.3
20260507074247 65 242 1.7 1.7 0.00 0.00 0.00 60 1020.3
20260507073748 64 160 4.3 4.3 0.00 0.00 0.00 60 1020.3
20260507073247 65 152 1.7 1.7 0.00 0.00 0.00 58 1020.3
20260507072748 64 258 1.7 1.7 0.00 0.00 0.00 60 1020.3
20260507072251 64 222 6.1 6.1 0.00 0.00 0.00 63 1020.3
20260507071748 63 137 3.5 3.5 0.00 0.00 0.00 63 1020.0
20260507071248 63 221 4.3 4.3 0.00 0.00 0.00 64 1020.0
20260507070748 63 176 5.2 6.1 0.00 0.00 0.00 64 1020.3
20260507070247 63 286 3.5 3.5 0.00 0.00 0.00 64 1020.3
20260507065748 63 126 2.6 3.5 0.00 0.00 0.00 61 1020.3
20260507065247 63 185 2.6 3.5 0.00 0.00 0.00 64 1020.3
20260507064747 62 84 0.0 0.0 0.00 0.00 0.00 65 1020.3
20260507064247 61 221 4.3 4.3 0.00 0.00 0.00 67 1020.7
20260507063747 61 217 4.3 5.2 0.00 0.00 0.00 67 1020.7
20260507063247 60 176 1.7 1.7 0.00 0.00 0.00 67 1020.3
20260507062747 60 147 1.7 1.7 0.00 0.00 0.00 70 1020.7
20260507062248 60 198 4.3 5.2 0.00 0.00 0.00 69 1020.3
20260507061748 60 180 2.6 2.6 0.00 0.00 0.00 70 1020.7
20260507061249 60 156 4.3 4.3 0.00 0.00 0.00 70 1020.7
20260507060748 60 167 2.6 2.6 0.00 0.00 0.00 72 1020.7
20260507060247 60 222 1.7 1.7 0.00 0.00 0.00 70 1020.7
20260507055748 59 146 2.6 2.6 0.00 0.00 0.00 70 1020.7
20260507055247 58 144 2.6 2.6 0.00 0.00 0.00 70 1020.3
20260507054747 58 186 2.6 2.6 0.00 0.00 0.00 70 1020.3
20260507054249 58 277 1.7 1.7 0.00 0.00 0.00 71 1020.7
20260507053747 58 155 2.6 2.6 0.00 0.00 0.00 73 1020.3
20260507053248 58 165 1.7 1.7 0.00 0.00 0.00 74 1020.7
20260507052747 57 138 1.7 1.7 0.00 0.00 0.00 75 1020.3
20260507052247 58 210 5.2 6.1 0.00 0.00 0.00 74 1020.3
20260507051747 58 282 1.7 1.7 0.00 0.00 0.00 72 1020.3
20260507051247 58 136 0.0 0.0 0.00 0.00 0.00 71 1020.3
20260507050747 59 182 0.0 0.0 0.00 0.00 0.00 70 1020.3
20260507050248 59 162 0.0 0.0 0.00 0.00 0.00 69 1020.0
20260507045748 58 126 0.0 0.0 0.00 0.00 0.00 71 1020.0
20260507045247 58 162 0.9 0.9 0.00 0.00 0.00 70 1020.0
20260507044748 57 91 0.0 0.0 0.00 0.00 0.00 70 1020.3
20260507044248 57 171 0.0 0.0 0.00 0.00 0.00 74 1020.0
20260507043749 57 102 0.0 0.0 0.00 0.00 0.00 74 1020.0
20260507043248 55 142 0.9 0.9 0.00 0.00 0.00 74 1020.0
20260507042748 55 138 0.0 0.0 0.00 0.00 0.00 76 1020.0
20260507042247 54 192 0.0 0.0 0.00 0.00 0.00 77 1020.0
20260507041751 55 144 0.0 0.0 0.00 0.00 0.00 75 1020.0
20260507041249 54 126 0.0 0.0 0.00 0.00 0.00 78 1020.0
20260507040747 54 78 0.0 0.0 0.00 0.00 0.00 79 1020.0
20260507040249 54 159 0.0 0.0 0.00 0.00 0.00 80 1020.0
20260507035748 53 108 0.0 0.0 0.00 0.00 0.00 81 1019.6
20260507035248 53 150 0.9 0.9 0.00 0.00 0.00 82 1020.0
20260507034748 53 90 0.0 0.0 0.00 0.00 0.00 81 1019.6
20260507034247 53 36 0.0 0.0 0.00 0.00 0.00 81 1019.6
20260507033747 52 6 0.0 0.0 0.00 0.00 0.00 82 1019.6
20260507033247 51 197 0.0 0.0 0.00 0.00 0.00 85 1019.6
20260507032749 51 203 0.0 0.0 0.00 0.00 0.00 86 1019.3
20260507032248 51 270 0.0 0.0 0.00 0.00 0.00 86 1019.3
20260507031747 51 246 0.0 0.0 0.00 0.00 0.00 85 1019.6
20260507031249 51 272 0.0 0.0 0.00 0.00 0.00 85 1019.3
20260507030748 51 213 0.0 0.0 0.00 0.00 0.00 85 1019.3
20260507030250 50 204 0.0 0.0 0.00 0.00 0.00 86 1019.3
20260507025748 50 234 0.9 0.9 0.00 0.00 0.00 86 1019.3
20260507025247 50 225 0.9 0.9 0.00 0.00 0.00 86 1019.3
20260507024748 51 171 0.9 0.9 0.00 0.00 0.00 86 1019.3
20260507024248 51 96 0.0 0.0 0.00 0.00 0.00 86 1019.0
20260507023748 51 186 0.0 0.0 0.00 0.00 0.00 86 1019.0
20260507023248 51 96 0.0 0.0 0.00 0.00 0.00 86 1019.0
20260507022747 51 240 0.0 0.0 0.00 0.00 0.00 86 1019.3
20260507022248 51 216 0.0 0.0 0.00 0.00 0.00 85 1019.0
20260507021748 51 156 0.0 0.0 0.00 0.00 0.00 85 1019.0
20260507021252 51 259 0.0 0.0 0.00 0.00 0.00 85 1019.0
20260507020748 51 36 0.0 0.0 0.00 0.00 0.00 83 1019.0
20260507020247 51 90 0.0 0.0 0.00 0.00 0.00 84 1019.0
20260507015748 51 60 0.9 0.9 0.00 0.00 0.00 84 1019.0
20260507015248 51 72 0.0 0.0 0.00 0.00 0.00 84 1018.6
20260507014747 51 187 0.0 0.0 0.00 0.00 0.00 84 1019.0
20260507014248 52 216 0.0 0.0 0.00 0.00 0.00 84 1019.0
20260507013748 52 225 0.0 0.0 0.00 0.00 0.00 82 1018.6
20260507013247 52 203 2.6 2.6 0.00 0.00 0.00 82 1019.0
20260507012748 52 204 4.3 4.3 0.00 0.00 0.00 81 1018.6
20260507012247 53 248 0.9 0.9 0.00 0.00 0.00 79 1019.0
20260507011748 53 234 1.7 1.7 0.00 0.00 0.00 80 1018.6
20260507011248 53 174 0.0 0.0 0.00 0.00 0.00 81 1018.6
20260507010747 53 288 0.0 0.0 0.00 0.00 0.00 82 1018.6
20260507010247 53 177 0.0 0.0 0.00 0.00 0.00 82 1018.3
20260507005748 53 355 0.0 0.0 0.00 0.00 0.00 81 1018.6
20260507005247 53 180 0.0 0.0 0.00 0.00 0.00 81 1018.6
20260507004747 53 192 0.0 0.0 0.00 0.00 0.00 80 1018.6
20260507004247 53 192 0.0 0.0 0.00 0.00 0.00 80 1018.6
20260507003748 53 6 0.0 0.0 0.00 0.00 0.00 80 1018.6
20260507003247 54 159 0.9 0.9 0.00 0.00 0.00 78 1018.3
20260507002747 54 198 0.9 0.9 0.00 0.00 0.00 77 1018.3
20260507002248 54 240 0.0 0.0 0.00 0.00 0.00 77 1018.3
20260507001747 54 204 0.0 0.0 0.00 0.00 0.00 76 1018.3
20260507001248 54 222 0.9 0.9 0.00 0.00 0.00 76 1018.6
20260507000747 54 130 0.0 0.0 0.00 0.00 0.00 76 1018.3
20260507000247 55 188 1.7 1.7 0.00 0.00 0.00 75 1018.3
20260506235747 55 220 1.7 1.7 0.00 0.00 0.00 74 1018.3
20260506235247 55 150 1.7 1.7 0.00 0.00 0.00 74 1018.6
20260506234748 56 192 2.6 2.6 0.00 0.00 0.00 73 1018.3
20260506234248 57 120 0.0 0.0 0.00 0.00 0.00 73 1018.6
20260506233748 57 176 0.0 0.0 0.00 0.00 0.00 72 1018.3
20260506233247 57 252 0.0 0.0 0.00 0.00 0.00 70 1018.3
20260506232748 57 234 0.0 0.0 0.00 0.00 0.00 71 1018.3
20260506232247 57 342 2.6 2.6 0.00 0.00 0.00 69 1018.6
20260506231748 57 276 4.3 5.2 0.00 0.00 0.00 70 1018.3
20260506231248 57 336 2.6 2.6 0.00 0.00 0.00 68 1018.3
20260506230748 58 348 3.5 3.5 0.00 0.00 0.00 69 1018.3
20260506230248 58 287 3.5 3.5 0.00 0.00 0.00 68 1018.3
20260506225747 58 294 0.9 0.9 0.00 0.00 0.00 68 1018.3
20260506225249 58 6 4.3 4.3 0.00 0.00 0.00 68 1018.3
20260506224748 58 30 0.9 0.9 0.00 0.00 0.00 67 1018.3
20260506224248 58 34 0.9 0.9 0.00 0.00 0.00 67 1018.6
20260506223747 58 1 2.6 2.6 0.00 0.00 0.00 68 1018.3
20260506223248 58 48 0.9 0.9 0.00 0.00 0.00 67 1018.3
20260506222747 58 6 0.9 0.9 0.00 0.00 0.00 68 1018.6
20260506222248 58 354 2.6 2.6 0.00 0.00 0.00 69 1018.3
20260506221748 58 54 0.9 0.9 0.00 0.00 0.00 67 1018.3
20260506221247 58 300 0.9 0.9 0.00 0.00 0.00 67 1018.3
20260506220753 58 6 2.6 2.6 0.00 0.00 0.00 66 1018.3
20260506220248 58 30 2.6 2.6 0.00 0.00 0.00 65 1018.6
20260506215747 58 168 1.7 1.7 0.00 0.00 0.00 68 1018.6
20260506215248 58 1 2.6 3.5 0.00 0.00 0.00 69 1018.6
20260506214748 58 324 2.6 2.6 0.00 0.00 0.00 69 1018.6
20260506214251 58 48 3.5 4.3 0.00 0.00 0.00 68 1018.6
20260506213748 58 30 2.6 2.6 0.00 0.00 0.00 67 1018.6
20260506213247 59 48 1.7 1.7 0.00 0.00 0.00 66 1018.6
20260506212748 59 316 0.9 0.9 0.00 0.00 0.00 65 1018.6
20260506212248 59 348 3.5 4.3 0.00 0.00 0.00 64 1018.6
20260506211748 59 48 1.7 1.7 0.00 0.00 0.00 61 1018.6
20260506211247 59 342 2.6 2.6 0.00 0.00 0.00 64 1018.6
20260506210748 59 324 1.7 1.7 0.00 0.00 0.00 66 1019.0
20260506210248 58 1 3.5 3.5 0.00 0.00 0.00 64 1018.6
20260506205747 58 6 2.6 3.5 0.00 0.00 0.00 68 1018.6
20260506205247 58 187 3.5 4.3 0.00 0.00 0.00 68 1018.6
20260506204747 58 6 1.7 1.7 0.00 0.00 0.00 68 1018.3
20260506204249 58 84 1.7 1.7 0.00 0.00 0.00 68 1018.6
20260506203748 59 342 1.7 1.7 0.00 0.00 0.00 65 1018.6
20260506203247 59 350 2.6 2.6 0.00 0.00 0.00 65 1018.3
20260506202747 60 348 2.6 2.6 0.00 0.00 0.00 63 1018.3
20260506202247 59 36 3.5 4.3 0.00 0.00 0.00 63 1018.3
20260506201748 59 311 1.7 1.7 0.00 0.00 0.00 65 1018.6
20260506201248 59 342 4.3 4.3 0.00 0.00 0.00 65 1018.3
20260506200747 60 300 2.6 2.6 0.00 0.00 0.00 64 1018.3
20260506200248 61 348 0.0 0.0 0.00 0.00 0.00 59 1018.3
20260506195747 61 294 1.7 1.7 0.00 0.00 0.00 57 1018.6
20260506195247 61 336 0.0 0.0 0.00 0.00 0.00 60 1018.3
20260506194748 61 260 0.0 0.0 0.00 0.00 0.00 59 1018.3
20260506194248 62 318 4.3 5.2 0.00 0.00 0.00 58 1018.3
20260506193749 61 339 7.8 7.8 0.00 0.00 0.00 58 1018.3
20260506193249 61 183 5.2 6.1 0.00 0.00 0.00 60 1018.3
20260506192748 61 310 4.3 4.3 0.00 0.00 0.00 59 1018.3
20260506192247 61 0 4.3 6.1 0.00 0.00 0.00 61 1018.3
20260506191748 61 344 6.1 7.0 0.00 0.00 0.00 61 1018.3
20260506191247 62 351 4.3 4.3 0.00 0.00 0.00 58 1018.3
20260506190747 62 342 4.3 4.3 0.00 0.00 0.00 58 1018.3
20260506190247 62 354 5.2 5.2 0.00 0.00 0.00 57 1018.3
20260506185747 62 348 3.5 3.5 0.00 0.00 0.00 56 1018.3
20260506185248 62 336 4.3 4.3 0.00 0.00 0.00 60 1018.3
20260506184748 62 288 0.9 0.9 0.00 0.00 0.00 60 1018.3
20260506184248 62 294 1.7 1.7 0.00 0.00 0.00 57 1018.3
20260506183747 62 276 4.3 4.3 0.00 0.00 0.00 56 1018.3
20260506183248 61 208 1.7 1.7 0.00 0.00 0.00 63 1018.3
20260506182747 60 120 0.9 0.9 0.00 0.00 0.00 61 1018.3
20260506182247 60 60 0.0 0.0 0.00 0.00 0.00 63 1017.9
20260506181747 60 1 2.6 2.6 0.00 0.00 0.00 65 1018.3
20260506181249 61 113 1.7 1.7 0.00 0.00 0.00 64 1018.3
20260506180748 61 42 1.7 1.7 0.00 0.00 0.00 62 1017.9
20260506180249 61 0 0.0 0.0 0.00 0.00 0.00 61 1017.9
20260506175747 62 276 1.7 1.7 0.00 0.00 0.00 62 1017.9
20260506175247 61 350 0.9 0.9 0.00 0.00 0.00 62 1017.9
20260506174749 61 66 1.7 1.7 0.00 0.00 0.00 62 1017.6
20260506174248 61 36 3.5 4.3 0.00 0.00 0.00 60 1017.6
20260506173747 62 72 2.6 2.6 0.00 0.00 0.00 63 1017.6
20260506173248 62 84 1.7 1.7 0.00 0.00 0.00 61 1017.6
20260506172747 63 276 1.7 1.7 0.00 0.00 0.00 59 1017.6
20260506172248 63 228 3.5 3.5 0.00 0.00 0.00 59 1017.3
20260506171747 63 206 3.5 4.3 0.00 0.00 0.00 59 1017.3
20260506171248 63 354 0.0 0.0 0.00 0.00 0.00 59 1016.9
20260506170747 63 294 7.8 7.8 0.00 0.00 0.00 58 1016.9
20260506170248 63 282 1.7 1.7 0.00 0.00 0.00 58 1016.9
20260506165748 63 242 5.2 6.1 0.00 0.00 0.00 59 1016.9
20260506165248 63 261 6.1 7.0 0.00 0.00 0.00 58 1017.3
20260506164748 64 312 3.5 4.3 0.00 0.00 0.00 58 1016.9
20260506164248 64 312 5.2 5.2 0.00 0.00 0.00 58 1016.9
20260506163747 64 282 7.0 7.8 0.00 0.00 0.00 58 1016.9
20260506163256 64 282 7.8 7.8 0.00 0.00 0.00 57 1016.9
20260506162749 64 312 6.1 7.0 0.00 0.00 0.00 57 1016.9
20260506162248 64 264 4.3 4.3 0.00 0.00 0.00 57 1016.9
20260506161748 64 282 2.6 2.6 0.00 0.00 0.00 56 1016.9
20260506161247 65 318 6.1 6.1 0.00 0.00 0.00 56 1016.9
20260506160750 65 288 2.6 2.6 0.00 0.00 0.00 56 1016.9
20260506160247 65 271 15.6 16.5 0.00 0.00 0.00 55 1016.9
20260506155748 65 260 10.4 12.2 0.00 0.00 0.00 54 1016.9
20260506155248 65 265 7.0 7.0 0.00 0.00 0.00 55 1016.6
20260506154747 66 277 6.1 6.1 0.00 0.00 0.00 54 1016.9
20260506154248 66 287 7.8 7.8 0.00 0.00 0.00 53 1016.6
20260506153748 66 248 9.6 9.6 0.00 0.00 0.00 53 1016.6
20260506153248 66 310 11.3 13.0 0.00 0.00 0.00 52 1016.3
20260506152751 67 270 7.0 7.0 0.00 0.00 0.00 53 1016.6
20260506152248 67 304 7.8 7.8 0.00 0.00 0.00 52 1016.6
20260506151748 67 332 6.1 7.0 0.00 0.00 0.00 51 1016.3
20260506151249 67 282 15.6 17.4 0.00 0.00 0.00 51 1016.3
20260506150748 67 264 10.4 11.3 0.00 0.00 0.00 51 1016.6
20260506150247 67 266 5.2 6.1 0.00 0.00 0.00 50 1016.6
20260506145748 67 303 9.6 12.2 0.00 0.00 0.00 50 1016.3
20260506145247 68 282 7.8 9.6 0.00 0.00 0.00 49 1016.6
20260506144747 68 252 10.4 11.3 0.00 0.00 0.00 50 1016.6
20260506144248 68 306 3.5 4.3 0.00 0.00 0.00 50 1016.3
20260506143747 68 356 11.3 13.0 0.00 0.00 0.00 49 1016.3
20260506143248 68 287 7.8 9.6 0.00 0.00 0.00 49 1016.6
20260506142749 68 246 7.8 8.7 0.00 0.00 0.00 49 1016.6
20260506142249 68 282 13.0 15.6 0.00 0.00 0.00 48 1016.6
20260506141749 68 258 7.8 9.6 0.00 0.00 0.00 48 1016.3
20260506141249 68 306 4.3 6.1 0.00 0.00 0.00 49 1016.6
20260506140748 68 264 16.5 17.4 0.00 0.00 0.00 48 1016.6
20260506140248 69 299 7.8 9.6 0.00 0.00 0.00 48 1016.3
20260506135749 69 246 13.0 13.9 0.00 0.00 0.00 47 1016.3
20260506135248 69 348 8.7 9.6 0.00 0.00 0.00 48 1016.3
20260506134748 69 270 4.3 4.3 0.00 0.00 0.00 48 1016.3
20260506134248 69 310 7.0 7.8 0.00 0.00 0.00 48 1016.3
20260506133749 69 223 7.0 7.0 0.00 0.00 0.00 48 1016.3
20260506133248 69 322 8.7 10.4 0.00 0.00 0.00 48 1016.6
20260506132748 69 226 9.6 13.0 0.00 0.00 0.00 48 1016.3
20260506132248 69 282 9.6 10.4 0.00 0.00 0.00 47 1016.6
20260506131748 69 287 7.0 7.0 0.00 0.00 0.00 48 1016.3
20260506131247 69 229 7.0 7.8 0.00 0.00 0.00 48 1016.3
20260506130747 69 205 7.0 7.8 0.00 0.00 0.00 48 1016.3
20260506130248 69 258 8.7 9.6 0.00 0.00 0.00 49 1016.3
20260506125748 69 227 5.2 6.1 0.00 0.00 0.00 48 1016.6
20260506125247 69 246 8.7 9.6 0.00 0.00 0.00 49 1016.3
20260506124748 69 210 7.0 7.0 0.00 0.00 0.00 50 1016.3
20260506124248 69 248 13.0 13.9 0.00 0.00 0.00 49 1016.6
20260506123748 69 322 8.7 9.6 0.00 0.00 0.00 50 1016.3
20260506123248 69 306 7.8 9.6 0.00 0.00 0.00 49 1016.6
20260506122748 69 230 16.5 17.4 0.00 0.00 0.00 49 1016.3
20260506122249 69 258 3.5 4.3 0.00 0.00 0.00 50 1016.6
20260506121747 69 276 7.8 7.8 0.00 0.00 0.00 49 1016.6
20260506121247 69 277 5.2 6.1 0.00 0.00 0.00 49 1016.6
20260506120748 69 282 7.0 7.0 0.00 0.00 0.00 50 1016.6
20260506120248 69 287 9.6 9.6 0.00 0.00 0.00 50 1016.6
20260506115747 69 306 9.6 11.3 0.00 0.00 0.00 48 1016.6
20260506115247 70 304 3.5 4.3 0.00 0.00 0.00 48 1016.6
20260506114747 69 288 7.8 8.7 0.00 0.00 0.00 48 1016.9
20260506114248 69 210 9.6 13.0 0.00 0.00 0.00 48 1016.9
20260506113749 69 282 11.3 13.0 0.00 0.00 0.00 49 1016.9
20260506113247 69 300 8.7 9.6 0.00 0.00 0.00 48 1016.9
20260506112747 69 300 5.2 6.1 0.00 0.00 0.00 47 1016.9
20260506112248 69 234 8.7 9.6 0.00 0.00 0.00 49 1017.3
20260506111747 69 300 4.3 5.2 0.00 0.00 0.00 50 1016.9
20260506111247 68 282 6.1 7.0 0.00 0.00 0.00 50 1016.9
20260506110747 69 272 13.0 14.8 0.00 0.00 0.00 49 1017.3
20260506110247 68 282 8.7 9.6 0.00 0.00 0.00 51 1017.3
20260506105747 69 233 9.6 11.3 0.00 0.00 0.00 51 1017.3
20260506105249 69 255 7.0 7.0 0.00 0.00 0.00 52 1017.3
20260506104748 68 271 8.7 9.6 0.00 0.00 0.00 51 1017.3
20260506104249 68 312 7.0 7.0 0.00 0.00 0.00 51 1017.3
20260506103748 69 207 4.3 6.1 0.00 0.00 0.00 51 1016.9
20260506103247 69 258 8.7 9.6 0.00 0.00 0.00 52 1017.3
20260506102748 69 248 7.8 9.6 0.00 0.00 0.00 51 1017.3
20260506102250 69 247 3.5 3.5 0.00 0.00 0.00 49 1017.3
20260506101749 69 42 0.9 0.9 0.00 0.00 0.00 49 1017.3